Time,TemperatureF,DewpointF,PressureIn,WindDirection,WindDirectionDegrees,WindSpeedMPH,WindSpeedGustMPH,Humidity,HourlyPrecipIn,Conditions,Clouds,dailyrainin,SoftwareType,DateUTC
2013-07-08 00:01:00,74.0,74.0,29.93,SSE,158,5.0,9.0,100,0.00,,,0.00,Weather View 32 v70,2013-07-08 04:01:00,
2013-07-08 00:02:00,74.0,74.0,29.93,SSE,158,4.0,9.0,100,0.00,,,0.00,Weather View 32 v70,2013-07-08 04:02:00,
2013-07-08 00:07:00,74.0,74.0,29.93,South,180,3.0,9.0,100,0.00,,,0.00,Weather View 32 v70,2013-07-08 04:07:00,
2013-07-08 00:12:00,74.0,74.0,29.94,ESE,112,6.0,9.0,100,0.00,,,0.00,Weather View 32 v70,2013-07-08 04:12:00,
2013-07-08 00:17:00,74.0,74.0,29.93,SSE,158,4.0,9.0,100,0.00,,,0.00,Weather View 32 v70,2013-07-08 04:17:00,
2013-07-08 00:22:00,74.0,74.0,29.93,SSE,158,3.0,9.0,100,0.00,,,0.00,Weather View 32 v70,2013-07-08 04:22:00,
2013-07-08 00:27:00,73.0,73.0,29.93,South,180,5.0,9.0,100,0.00,,,0.00,Weather View 32 v70,2013-07-08 04:27:00,
2013-07-08 00:32:00,73.0,73.0,29.93,SSE,158,5.0,9.0,100,0.00,,,0.00,Weather View 32 v70,2013-07-08 04:32:00,
2013-07-08 00:37:00,73.0,73.0,29.94,ESE,112,2.0,9.0,100,0.00,,,0.00,Weather View 32 v70,2013-07-08 04:37:00,
2013-07-08 00:42:00,73.0,73.0,29.94,ESE,112,3.0,9.0,100,0.00,,,0.00,Weather View 32 v70,2013-07-08 04:42:00,
2013-07-08 00:47:00,73.0,73.0,29.94,South,180,3.0,9.0,100,0.00,,,0.00,Weather View 32 v70,2013-07-08 04:47:00,
2013-07-08 00:52:00,73.0,73.0,29.94,South,180,4.0,9.0,100,0.00,,,0.00,Weather View 32 v70,2013-07-08 04:52:00,
2013-07-08 00:57:00,73.0,73.0,29.94,SE,135,5.0,8.0,100,0.00,,,0.00,Weather View 32 v70,2013-07-08 04:57:00,
2013-07-08 01:02:00,73.0,73.0,29.94,SE,135,5.0,8.0,100,0.00,,,0.00,Weather View 32 v70,2013-07-08 05:02:00,
2013-07-08 01:07:00,73.0,73.0,29.94,ESE,112,1.0,8.0,100,0.00,,,0.00,Weather View 32 v70,2013-07-08 05:07:00,
2013-07-08 01:12:00,73.0,73.0,29.93,SE,135,4.0,8.0,100,0.00,,,0.00,Weather View 32 v70,2013-07-08 05:12:00,
2013-07-08 01:17:00,73.0,73.0,29.94,SE,135,6.0,8.0,100,0.00,,,0.00,Weather View 32 v70,2013-07-08 05:17:00,
2013-07-08 01:22:00,73.0,73.0,29.94,SE,135,3.0,8.0,100,0.00,,,0.00,Weather View 32 v70,2013-07-08 05:22:00,
2013-07-08 01:27:00,73.0,73.0,29.93,ESE,112,3.0,8.0,100,0.00,,,0.00,Weather View 32 v70,2013-07-08 05:27:00,
2013-07-08 01:32:00,72.0,72.0,29.93,ESE,112,6.0,8.0,100,0.00,,,0.00,Weather View 32 v70,2013-07-08 05:32:00,
2013-07-08 01:37:00,72.0,72.0,29.94,ESE,112,3.0,8.0,100,0.00,,,0.00,Weather View 32 v70,2013-07-08 05:37:00,
2013-07-08 01:42:00,72.0,72.0,29.94,SE,135,3.0,8.0,100,0.00,,,0.00,Weather View 32 v70,2013-07-08 05:42:00,
2013-07-08 01:47:00,72.0,72.0,29.94,SSE,158,6.0,7.0,100,0.00,,,0.00,Weather View 32 v70,2013-07-08 05:47:00,
2013-07-08 01:52:00,72.0,72.0,29.94,SE,135,2.0,7.0,100,0.00,,,0.00,Weather View 32 v70,2013-07-08 05:52:00,
2013-07-08 01:57:00,72.0,72.0,29.94,SE,135,3.0,7.0,100,0.00,,,0.00,Weather View 32 v70,2013-07-08 05:57:00,
2013-07-08 02:02:00,72.0,72.0,29.93,South,180,2.0,7.0,100,0.00,,,0.00,Weather View 32 v70,2013-07-08 06:02:00,
2013-07-08 02:07:00,72.0,72.0,29.94,SE,135,2.0,7.0,100,0.00,,,0.00,Weather View 32 v70,2013-07-08 06:07:00,
2013-07-08 02:12:00,72.0,72.0,29.93,ESE,112,3.0,7.0,100,0.00,,,0.00,Weather View 32 v70,2013-07-08 06:12:00,
2013-07-08 02:17:00,72.0,72.0,29.93,SSW,202,1.0,8.0,100,0.00,,,0.00,Weather View 32 v70,2013-07-08 06:17:00,
2013-07-08 02:22:00,72.0,72.0,29.93,ESE,112,3.0,8.0,100,0.00,,,0.00,Weather View 32 v70,2013-07-08 06:22:00,
2013-07-08 02:27:00,72.0,72.0,29.93,East,90,3.0,8.0,100,0.00,,,0.00,Weather View 32 v70,2013-07-08 06:27:00,
2013-07-08 02:32:00,72.0,72.0,29.93,SE,135,3.0,8.0,100,0.00,,,0.00,Weather View 32 v70,2013-07-08 06:32:00,
2013-07-08 02:37:00,72.0,72.0,29.93,East,90,3.0,8.0,100,0.00,,,0.00,Weather View 32 v70,2013-07-08 06:37:00,
2013-07-08 02:42:00,72.0,72.0,29.93,ESE,112,3.0,8.0,100,0.00,,,0.00,Weather View 32 v70,2013-07-08 06:42:00,
2013-07-08 02:47:00,71.0,71.0,29.93,SE,135,3.0,8.0,100,0.00,,,0.00,Weather View 32 v70,2013-07-08 06:47:00,
2013-07-08 02:52:00,71.0,71.0,29.93,SE,135,4.0,9.0,100,0.00,,,0.00,Weather View 32 v70,2013-07-08 06:52:00,
2013-07-08 02:57:00,71.0,71.0,29.93,SSE,158,2.0,9.0,100,0.00,,,0.00,Weather View 32 v70,2013-07-08 06:57:00,
2013-07-08 03:02:00,71.0,71.0,29.93,ESE,112,3.0,9.0,100,0.00,,,0.00,Weather View 32 v70,2013-07-08 07:02:00,
2013-07-08 03:07:00,71.0,71.0,29.93,SSE,158,3.0,9.0,100,0.00,,,0.00,Weather View 32 v70,2013-07-08 07:07:00,
2013-07-08 03:12:00,71.0,71.0,29.93,South,180,2.0,9.0,100,0.00,,,0.00,Weather View 32 v70,2013-07-08 07:12:00,
2013-07-08 03:17:00,71.0,71.0,29.93,South,180,3.0,9.0,100,0.00,,,0.00,Weather View 32 v70,2013-07-08 07:17:00,
2013-07-08 03:22:00,71.0,71.0,29.93,East,90,1.0,9.0,100,0.00,,,0.00,Weather View 32 v70,2013-07-08 07:22:00,
2013-07-08 03:27:00,71.0,71.0,29.93,SE,135,3.0,9.0,100,0.00,,,0.00,Weather View 32 v70,2013-07-08 07:27:00,
2013-07-08 03:32:00,71.0,71.0,29.93,SSW,202,3.0,9.0,100,0.00,,,0.00,Weather View 32 v70,2013-07-08 07:32:00,
2013-07-08 03:37:00,71.0,71.0,29.93,South,180,1.0,9.0,100,0.00,,,0.00,Weather View 32 v70,2013-07-08 07:37:00,
2013-07-08 03:42:00,71.0,71.0,29.93,SE,135,4.0,9.0,100,0.00,,,0.00,Weather View 32 v70,2013-07-08 07:42:00,
2013-07-08 03:47:00,71.0,71.0,29.93,SSE,158,4.0,9.0,100,0.00,,,0.00,Weather View 32 v70,2013-07-08 07:47:00,
2013-07-08 03:52:00,71.0,71.0,29.93,SE,135,2.0,8.0,100,0.00,,,0.00,Weather View 32 v70,2013-07-08 07:52:00,
2013-07-08 03:57:00,71.0,71.0,29.94,SSE,158,3.0,6.0,100,0.00,,,0.00,Weather View 32 v70,2013-07-08 07:57:00,
2013-07-08 04:02:00,71.0,71.0,29.94,SE,135,1.0,6.0,100,0.00,,,0.00,Weather View 32 v70,2013-07-08 08:02:00,
2013-07-08 04:07:00,71.0,71.0,29.94,ESE,112,2.0,6.0,100,0.00,,,0.00,Weather View 32 v70,2013-07-08 08:07:00,
2013-07-08 04:12:00,71.0,71.0,29.94,SE,135,3.0,6.0,100,0.00,,,0.00,Weather View 32 v70,2013-07-08 08:12:00,
2013-07-08 04:17:00,71.0,71.0,29.94,ESE,112,3.0,6.0,100,0.00,,,0.00,Weather View 32 v70,2013-07-08 08:17:00,
2013-07-08 04:22:00,71.0,71.0,29.94,SE,135,3.0,6.0,100,0.00,,,0.00,Weather View 32 v70,2013-07-08 08:22:00,
2013-07-08 04:27:00,71.0,71.0,29.94,SSE,158,3.0,6.0,100,0.00,,,0.00,Weather View 32 v70,2013-07-08 08:27:00,
2013-07-08 04:32:00,71.0,71.0,29.95,SSE,158,3.0,6.0,100,0.00,,,0.00,Weather View 32 v70,2013-07-08 08:32:00,
2013-07-08 04:37:00,71.0,71.0,29.94,SE,135,4.0,6.0,100,0.00,,,0.00,Weather View 32 v70,2013-07-08 08:37:00,
2013-07-08 04:42:00,71.0,71.0,29.94,NE,45,1.0,6.0,100,0.00,,,0.00,Weather View 32 v70,2013-07-08 08:42:00,
2013-07-08 04:47:00,71.0,71.0,29.94,SE,135,3.0,6.0,100,0.00,,,0.00,Weather View 32 v70,2013-07-08 08:47:00,
2013-07-08 04:52:00,71.0,71.0,29.94,SSE,158,3.0,6.0,100,0.00,,,0.00,Weather View 32 v70,2013-07-08 08:52:00,
2013-07-08 04:57:00,71.0,71.0,29.94,ESE,112,1.0,6.0,100,0.00,,,0.00,Weather View 32 v70,2013-07-08 08:57:00,
2013-07-08 05:02:00,71.0,71.0,29.94,ESE,112,1.0,6.0,100,0.00,,,0.00,Weather View 32 v70,2013-07-08 09:02:00,
2013-07-08 05:07:00,71.0,71.0,29.94,SSE,158,3.0,6.0,100,0.00,,,0.00,Weather View 32 v70,2013-07-08 09:07:00,
2013-07-08 05:12:00,71.0,71.0,29.94,South,180,4.0,6.0,100,0.00,,,0.00,Weather View 32 v70,2013-07-08 09:12:00,
2013-07-08 05:17:00,71.0,71.0,29.94,East,90,3.0,6.0,100,0.00,,,0.00,Weather View 32 v70,2013-07-08 09:17:00,
2013-07-08 05:22:00,71.0,71.0,29.94,NE,45,0.0,6.0,100,0.00,,,0.00,Weather View 32 v70,2013-07-08 09:22:00,
2013-07-08 05:27:00,70.0,70.0,29.94,East,90,3.0,6.0,100,0.00,,,0.00,Weather View 32 v70,2013-07-08 09:27:00,
2013-07-08 05:32:00,70.0,70.0,29.94,ENE,68,1.0,6.0,100,0.00,,,0.00,Weather View 32 v70,2013-07-08 09:32:00,
2013-07-08 05:37:00,70.0,70.0,29.95,East,90,4.0,6.0,100,0.00,,,0.00,Weather View 32 v70,2013-07-08 09:37:00,
2013-07-08 05:42:00,70.0,70.0,29.95,SE,135,3.0,6.0,100,0.00,,,0.00,Weather View 32 v70,2013-07-08 09:42:00,
2013-07-08 05:47:00,71.0,71.0,29.96,SE,135,3.0,6.0,100,0.00,,,0.00,Weather View 32 v70,2013-07-08 09:47:00,
2013-07-08 05:52:00,71.0,71.0,29.96,SE,135,3.0,6.0,100,0.00,,,0.00,Weather View 32 v70,2013-07-08 09:52:00,
2013-07-08 05:57:00,71.0,71.0,29.96,SE,135,5.0,6.0,100,0.00,,,0.00,Weather View 32 v70,2013-07-08 09:57:00,
2013-07-08 06:02:00,71.0,71.0,29.96,SSE,158,3.0,6.0,100,0.00,,,0.00,Weather View 32 v70,2013-07-08 10:02:00,
2013-07-08 06:07:00,71.0,71.0,29.96,ESE,112,3.0,6.0,100,0.00,,,0.00,Weather View 32 v70,2013-07-08 10:07:00,
2013-07-08 06:12:00,71.0,71.0,29.96,SSE,158,3.0,6.0,100,0.00,,,0.00,Weather View 32 v70,2013-07-08 10:12:00,
2013-07-08 06:17:00,71.0,71.0,29.96,SSE,158,3.0,6.0,100,0.00,,,0.00,Weather View 32 v70,2013-07-08 10:17:00,
2013-07-08 06:22:00,71.0,71.0,29.96,NE,45,1.0,6.0,100,0.00,,,0.00,Weather View 32 v70,2013-07-08 10:22:00,
2013-07-08 06:27:00,71.0,71.0,29.96,ESE,112,3.0,6.0,100,0.00,,,0.00,Weather View 32 v70,2013-07-08 10:27:00,
2013-07-08 06:32:00,71.0,71.0,29.96,East,90,1.0,6.0,100,0.00,,,0.00,Weather View 32 v70,2013-07-08 10:32:00,
2013-07-08 06:37:00,71.0,71.0,29.96,SE,135,1.0,6.0,100,0.00,,,0.00,Weather View 32 v70,2013-07-08 10:37:00,
2013-07-08 06:42:00,72.0,72.0,29.96,ESE,112,2.0,6.0,100,0.00,,,0.00,Weather View 32 v70,2013-07-08 10:42:00,
2013-07-08 06:47:00,72.0,72.0,29.96,SE,135,3.0,6.0,100,0.00,,,0.00,Weather View 32 v70,2013-07-08 10:47:00,
2013-07-08 06:52:00,72.0,72.0,29.96,ESE,112,4.0,6.0,100,0.00,,,0.00,Weather View 32 v70,2013-07-08 10:52:00,
2013-07-08 06:57:00,72.0,72.0,29.96,ESE,112,3.0,6.0,100,0.00,,,0.00,Weather View 32 v70,2013-07-08 10:57:00,
2013-07-08 07:02:00,73.0,73.0,29.96,ESE,112,4.0,6.0,100,0.00,,,0.00,Weather View 32 v70,2013-07-08 11:02:00,
2013-07-08 07:07:00,73.0,73.0,29.96,South,180,3.0,6.0,100,0.00,,,0.00,Weather View 32 v70,2013-07-08 11:07:00,
2013-07-08 07:12:00,73.0,73.0,29.97,South,180,4.0,6.0,100,0.00,,,0.00,Weather View 32 v70,2013-07-08 11:12:00,
2013-07-08 07:17:00,73.0,73.0,29.97,South,180,3.0,6.0,100,0.00,,,0.00,Weather View 32 v70,2013-07-08 11:17:00,
2013-07-08 07:22:00,74.0,74.0,29.96,SE,135,2.0,6.0,100,0.00,,,0.00,Weather View 32 v70,2013-07-08 11:22:00,
2013-07-08 07:27:00,74.0,74.0,29.97,SSW,202,3.0,6.0,100,0.00,,,0.00,Weather View 32 v70,2013-07-08 11:27:00,
2013-07-08 07:32:00,75.0,75.0,29.97,ESE,112,4.0,6.0,100,0.00,,,0.00,Weather View 32 v70,2013-07-08 11:32:00,
2013-07-08 07:37:00,75.0,75.0,29.96,South,180,4.0,6.0,100,0.00,,,0.00,Weather View 32 v70,2013-07-08 11:37:00,
2013-07-08 07:42:00,75.0,75.0,29.97,WSW,248,3.0,6.0,100,0.00,,,0.00,Weather View 32 v70,2013-07-08 11:42:00,
2013-07-08 07:47:00,75.0,74.7,29.96,SW,225,2.0,6.0,99,0.00,,,0.00,Weather View 32 v70,2013-07-08 11:47:00,
2013-07-08 07:52:00,75.0,74.4,29.97,SSW,202,7.0,8.0,98,0.00,,,0.00,Weather View 32 v70,2013-07-08 11:52:00,
2013-07-08 07:57:00,75.0,74.1,29.97,South,180,3.0,10.0,97,0.00,,,0.00,Weather View 32 v70,2013-07-08 11:57:00,
2013-07-08 08:02:00,75.0,74.1,29.97,SSE,158,4.0,10.0,97,0.00,,,0.00,Weather View 32 v70,2013-07-08 12:02:00,
2013-07-08 08:07:00,75.0,73.8,29.98,South,180,4.0,10.0,96,0.00,,,0.00,Weather View 32 v70,2013-07-08 12:07:00,
2013-07-08 08:12:00,75.0,73.8,29.98,South,180,4.0,10.0,96,0.00,,,0.00,Weather View 32 v70,2013-07-08 12:12:00,
2013-07-08 08:17:00,76.0,74.8,29.98,SE,135,2.0,10.0,96,0.00,,,0.00,Weather View 32 v70,2013-07-08 12:17:00,
2013-07-08 08:22:00,76.0,74.1,29.98,SSE,158,4.0,10.0,94,0.00,,,0.00,Weather View 32 v70,2013-07-08 12:22:00,
2013-07-08 08:27:00,76.0,74.1,29.97,SW,225,3.0,10.0,94,0.00,,,0.00,Weather View 32 v70,2013-07-08 12:27:00,
2013-07-08 08:32:00,76.0,73.8,29.97,SW,225,4.0,10.0,93,0.00,,,0.00,Weather View 32 v70,2013-07-08 12:32:00,
2013-07-08 08:37:00,76.0,73.8,29.97,South,180,5.0,10.0,93,0.00,,,0.00,Weather View 32 v70,2013-07-08 12:37:00,
2013-07-08 08:42:00,77.0,74.8,29.97,SSW,202,5.0,10.0,93,0.00,,,0.00,Weather View 32 v70,2013-07-08 12:42:00,
2013-07-08 08:47:00,77.0,74.5,29.97,South,180,5.0,10.0,92,0.00,,,0.00,Weather View 32 v70,2013-07-08 12:47:00,
2013-07-08 08:52:00,77.0,74.2,29.97,SSW,202,1.0,10.0,91,0.00,,,0.00,Weather View 32 v70,2013-07-08 12:52:00,
2013-07-08 08:57:00,77.0,73.8,29.97,SE,135,6.0,10.0,90,0.00,,,0.00,Weather View 32 v70,2013-07-08 12:57:00,
2013-07-08 09:02:00,77.0,73.5,29.97,SW,225,3.0,10.0,89,0.00,,,0.00,Weather View 32 v70,2013-07-08 13:02:00,
2013-07-08 09:07:00,77.0,73.8,29.97,South,180,3.0,10.0,90,0.00,,,0.00,Weather View 32 v70,2013-07-08 13:07:00,
2013-07-08 09:12:00,78.0,74.5,29.98,SSE,158,6.0,10.0,89,0.00,,,0.00,Weather View 32 v70,2013-07-08 13:12:00,
2013-07-08 09:17:00,78.0,74.1,29.97,SE,135,5.0,10.0,88,0.00,,,0.00,Weather View 32 v70,2013-07-08 13:17:00,
2013-07-08 09:22:00,78.0,73.8,29.97,South,180,5.0,10.0,87,0.00,,,0.00,Weather View 32 v70,2013-07-08 13:22:00,
2013-07-08 09:27:00,78.0,73.8,29.97,SE,135,7.0,10.0,87,0.00,,,0.00,Weather View 32 v70,2013-07-08 13:27:00,
2013-07-08 09:32:00,79.0,74.8,29.97,SSW,202,2.0,10.0,87,0.00,,,0.00,Weather View 32 v70,2013-07-08 13:32:00,
2013-07-08 09:37:00,79.0,74.1,29.97,SSW,202,5.0,10.0,85,0.00,,,0.00,Weather View 32 v70,2013-07-08 13:37:00,
2013-07-08 09:42:00,79.0,74.1,29.96,SSW,202,6.0,10.0,85,0.00,,,0.00,Weather View 32 v70,2013-07-08 13:42:00,
2013-07-08 09:47:00,79.0,73.7,29.96,South,180,5.0,10.0,84,0.00,,,0.00,Weather View 32 v70,2013-07-08 13:47:00,
2013-07-08 09:52:00,80.0,74.3,29.96,SE,135,4.0,10.0,83,0.00,,,0.00,Weather View 32 v70,2013-07-08 13:52:00,
2013-07-08 09:57:00,80.0,74.0,29.96,SE,135,3.0,9.0,82,0.00,,,0.00,Weather View 32 v70,2013-07-08 13:57:00,
2013-07-08 10:02:00,80.0,73.6,29.96,SE,135,5.0,9.0,81,0.00,,,0.00,Weather View 32 v70,2013-07-08 14:02:00,
2013-07-08 10:07:00,80.0,74.0,29.96,South,180,7.0,9.0,82,0.00,,,0.00,Weather View 32 v70,2013-07-08 14:07:00,
2013-07-08 10:12:00,81.0,74.6,29.97,SW,225,3.0,9.0,81,0.00,,,0.00,Weather View 32 v70,2013-07-08 14:12:00,
2013-07-08 10:17:00,81.0,74.2,29.97,ESE,112,5.0,9.0,80,0.00,,,0.00,Weather View 32 v70,2013-07-08 14:17:00,
2013-07-08 10:22:00,81.0,73.8,29.97,ESE,112,5.0,9.0,79,0.00,,,0.00,Weather View 32 v70,2013-07-08 14:22:00,
2013-07-08 10:27:00,81.0,73.8,29.97,East,90,4.0,9.0,79,0.00,,,0.00,Weather View 32 v70,2013-07-08 14:27:00,
2013-07-08 10:32:00,82.0,74.8,29.97,SSE,158,7.0,9.0,79,0.00,,,0.00,Weather View 32 v70,2013-07-08 14:32:00,
2013-07-08 10:37:00,82.0,74.0,29.97,SSE,158,4.0,10.0,77,0.00,,,0.00,Weather View 32 v70,2013-07-08 14:37:00,
2013-07-08 10:42:00,82.0,74.0,29.97,South,180,3.0,10.0,77,0.00,,,0.00,Weather View 32 v70,2013-07-08 14:42:00,
2013-07-08 10:47:00,83.0,74.6,29.97,SSE,158,3.0,10.0,76,0.00,,,0.00,Weather View 32 v70,2013-07-08 14:47:00,
2013-07-08 10:52:00,83.0,75.0,29.97,SE,135,10.0,10.0,77,0.00,,,0.00,Weather View 32 v70,2013-07-08 14:52:00,
2013-07-08 10:57:00,82.0,73.7,29.97,ESE,112,5.0,11.0,76,0.00,,,0.00,Weather View 32 v70,2013-07-08 14:57:00,
2013-07-08 11:02:00,83.0,74.6,29.97,SSE,158,8.0,11.0,76,0.00,,,0.00,Weather View 32 v70,2013-07-08 15:02:00,
2013-07-08 11:07:00,83.0,73.8,29.97,SW,225,2.0,11.0,74,0.00,,,0.00,Weather View 32 v70,2013-07-08 15:07:00,
2013-07-08 11:12:00,83.0,74.2,29.97,ESE,112,4.0,11.0,75,0.00,,,0.00,Weather View 32 v70,2013-07-08 15:12:00,
2013-07-08 11:17:00,83.0,73.4,29.97,SSW,202,2.0,11.0,73,0.00,,,0.00,Weather View 32 v70,2013-07-08 15:17:00,
2013-07-08 11:22:00,83.0,73.0,29.97,SSW,202,5.0,11.0,72,0.00,,,0.00,Weather View 32 v70,2013-07-08 15:22:00,
2013-07-08 11:27:00,83.0,73.4,29.98,South,180,3.0,11.0,73,0.00,,,0.00,Weather View 32 v70,2013-07-08 15:27:00,
2013-07-08 11:32:00,84.0,73.5,29.97,SE,135,3.0,11.0,71,0.00,,,0.00,Weather View 32 v70,2013-07-08 15:32:00,
2013-07-08 11:37:00,84.0,73.5,29.97,South,180,7.0,11.0,71,0.00,,,0.00,Weather View 32 v70,2013-07-08 15:37:00,
2013-07-08 11:42:00,83.0,72.2,29.97,SSE,158,6.0,11.0,70,0.00,,,0.00,Weather View 32 v70,2013-07-08 15:42:00,
2013-07-08 11:47:00,83.0,73.0,29.97,SSE,158,8.0,13.0,72,0.00,,,0.00,Weather View 32 v70,2013-07-08 15:47:00,
2013-07-08 11:52:00,84.0,73.5,29.97,WSW,248,4.0,13.0,71,0.00,,,0.00,Weather View 32 v70,2013-07-08 15:52:00,
2013-07-08 11:57:00,84.0,73.5,29.97,SSW,202,6.0,13.0,71,0.00,,,0.00,Weather View 32 v70,2013-07-08 15:57:00,
2013-07-08 12:02:00,84.0,73.5,29.97,SSW,202,6.0,13.0,71,0.00,,,0.00,Weather View 32 v70,2013-07-08 16:02:00,
2013-07-08 12:07:00,84.0,73.5,29.97,SE,135,4.0,13.0,71,0.00,,,0.00,Weather View 32 v70,2013-07-08 16:07:00,
2013-07-08 12:12:00,84.0,72.7,29.97,NNE,22,1.0,13.0,69,0.00,,,0.00,Weather View 32 v70,2013-07-08 16:12:00,
2013-07-08 12:17:00,84.0,72.3,29.97,SSW,202,8.0,13.0,68,0.00,,,0.00,Weather View 32 v70,2013-07-08 16:17:00,
2013-07-08 12:22:00,84.0,72.3,29.97,SE,135,4.0,13.0,68,0.00,,,0.00,Weather View 32 v70,2013-07-08 16:22:00,
2013-07-08 12:27:00,85.0,72.3,29.97,South,180,5.0,13.0,66,0.00,,,0.00,Weather View 32 v70,2013-07-08 16:27:00,
2013-07-08 12:35:00,85.0,71.4,29.97,SE,135,6.0,13.0,64,0.00,,,0.00,Weather View 32 v70,2013-07-08 16:35:00,
2013-07-08 12:40:00,84.0,72.3,29.97,South,180,3.0,13.0,68,0.00,,,0.00,Weather View 32 v70,2013-07-08 16:40:00,
2013-07-08 12:46:00,83.0,72.2,29.97,SSW,202,5.0,13.0,70,0.00,,,0.00,Weather View 32 v70,2013-07-08 16:46:00,
2013-07-08 12:51:00,83.0,72.2,29.97,SW,225,4.0,13.0,70,0.00,,,0.00,Weather View 32 v70,2013-07-08 16:51:00,
2013-07-08 12:56:00,84.0,71.8,29.97,South,180,6.0,13.0,67,0.00,,,0.00,Weather View 32 v70,2013-07-08 16:56:00,
2013-07-08 13:01:00,84.0,72.7,29.97,SSE,158,6.0,13.0,69,0.00,,,0.00,Weather View 32 v70,2013-07-08 17:01:00,
2013-07-08 13:07:00,85.0,72.3,29.96,South,180,5.0,13.0,66,0.00,,,0.00,Weather View 32 v70,2013-07-08 17:07:00,
2013-07-08 13:12:00,85.0,71.4,29.96,South,180,4.0,13.0,64,0.00,,,0.00,Weather View 32 v70,2013-07-08 17:12:00,
2013-07-08 13:17:00,86.0,71.9,29.96,SSE,158,3.0,13.0,63,0.00,,,0.00,Weather View 32 v70,2013-07-08 17:17:00,
2013-07-08 13:23:00,86.0,70.9,29.96,ESE,112,5.0,13.0,61,0.00,,,0.00,Weather View 32 v70,2013-07-08 17:23:00,
2013-07-08 13:28:00,86.0,70.9,29.96,South,180,6.0,13.0,61,0.00,,,0.00,Weather View 32 v70,2013-07-08 17:28:00,
2013-07-08 13:33:00,86.0,71.4,29.96,South,180,4.0,13.0,62,0.00,,,0.00,Weather View 32 v70,2013-07-08 17:33:00,
2013-07-08 13:38:00,86.0,70.9,29.96,North,0,2.0,13.0,61,0.00,,,0.00,Weather View 32 v70,2013-07-08 17:38:00,
2013-07-08 13:43:00,86.0,69.9,29.96,SE,135,5.0,13.0,59,0.00,,,0.00,Weather View 32 v70,2013-07-08 17:43:00,
2013-07-08 13:48:00,87.0,72.3,29.95,East,90,2.0,13.0,62,0.00,,,0.00,Weather View 32 v70,2013-07-08 17:48:00,
2013-07-08 13:54:00,87.0,72.3,29.95,SSW,202,3.0,13.0,62,0.00,,,0.00,Weather View 32 v70,2013-07-08 17:54:00,
2013-07-08 13:59:00,87.0,71.9,29.95,WSW,248,6.0,13.0,61,0.00,,,0.00,Weather View 32 v70,2013-07-08 17:59:00,
2013-07-08 14:05:00,87.0,71.4,29.95,West,270,5.0,13.0,60,0.00,,,0.00,Weather View 32 v70,2013-07-08 18:05:00,
2013-07-08 14:10:00,87.0,71.4,29.94,South,180,5.0,13.0,60,0.00,,,0.00,Weather View 32 v70,2013-07-08 18:10:00,
2013-07-08 14:15:00,87.0,70.4,29.94,SSE,158,10.0,13.0,58,0.00,,,0.00,Weather View 32 v70,2013-07-08 18:15:00,
2013-07-08 14:20:00,87.0,70.4,29.94,SW,225,4.0,13.0,58,0.00,,,0.00,Weather View 32 v70,2013-07-08 18:20:00,
2013-07-08 14:25:00,87.0,70.4,29.94,SE,135,9.0,13.0,58,0.00,,,0.00,Weather View 32 v70,2013-07-08 18:25:00,
2013-07-08 14:30:00,87.0,69.3,29.94,South,180,6.0,14.0,56,0.00,,,0.00,Weather View 32 v70,2013-07-08 18:30:00,
2013-07-08 14:35:00,87.0,68.8,29.94,SE,135,10.0,14.0,55,0.00,,,0.00,Weather View 32 v70,2013-07-08 18:35:00,
2013-07-08 14:41:00,87.0,69.3,29.94,SSW,202,8.0,14.0,56,0.00,,,0.00,Weather View 32 v70,2013-07-08 18:41:00,
2013-07-08 14:46:00,87.0,70.4,29.94,SSE,158,9.0,14.0,58,0.00,,,0.00,Weather View 32 v70,2013-07-08 18:46:00,
2013-07-08 14:52:00,88.0,70.3,29.94,South,180,6.0,14.0,56,0.00,,,0.00,Weather View 32 v70,2013-07-08 18:52:00,
2013-07-08 14:58:00,88.0,71.3,29.94,ESE,112,5.0,14.0,58,0.00,,,0.00,Weather View 32 v70,2013-07-08 18:58:00,
2013-07-08 15:04:00,88.0,70.3,29.94,SE,135,6.0,14.0,56,0.00,,,0.00,Weather View 32 v70,2013-07-08 19:04:00,
2013-07-08 15:09:00,88.0,70.8,29.94,South,180,4.0,14.0,57,0.00,,,0.00,Weather View 32 v70,2013-07-08 19:09:00,
2013-07-08 15:14:00,88.0,69.7,29.94,SW,225,5.0,14.0,55,0.00,,,0.00,Weather View 32 v70,2013-07-08 19:14:00,
2013-07-08 15:19:00,87.0,69.3,29.94,SSE,158,8.0,14.0,56,0.00,,,0.00,Weather View 32 v70,2013-07-08 19:19:00,
2013-07-08 15:24:00,87.0,70.4,29.93,South,180,6.0,14.0,58,0.00,,,0.00,Weather View 32 v70,2013-07-08 19:24:00,
2013-07-08 15:30:00,87.0,69.9,29.93,SE,135,7.0,13.0,57,0.00,,,0.00,Weather View 32 v70,2013-07-08 19:30:00,
2013-07-08 15:35:00,87.0,69.9,29.93,South,180,7.0,13.0,57,0.00,,,0.00,Weather View 32 v70,2013-07-08 19:35:00,
2013-07-08 15:40:00,88.0,71.8,29.93,SE,135,5.0,13.0,59,0.00,,,0.00,Weather View 32 v70,2013-07-08 19:40:00,
2013-07-08 15:45:00,87.0,69.9,29.93,South,180,10.0,13.0,57,0.00,,,0.00,Weather View 32 v70,2013-07-08 19:45:00,
2013-07-08 15:50:00,87.0,69.3,29.93,East,90,8.0,13.0,56,0.00,,,0.00,Weather View 32 v70,2013-07-08 19:50:00,
2013-07-08 15:55:00,88.0,70.8,29.93,ESE,112,9.0,13.0,57,0.00,,,0.00,Weather View 32 v70,2013-07-08 19:55:00,
2013-07-08 16:00:00,88.0,69.7,29.92,SSE,158,8.0,13.0,55,0.00,,,0.00,Weather View 32 v70,2013-07-08 20:00:00,
2013-07-08 16:06:00,88.0,70.3,29.92,SE,135,3.0,13.0,56,0.00,,,0.00,Weather View 32 v70,2013-07-08 20:06:00,
2013-07-08 16:11:00,88.0,69.7,29.93,SE,135,9.0,13.0,55,0.00,,,0.00,Weather View 32 v70,2013-07-08 20:11:00,
2013-07-08 16:17:00,88.0,70.8,29.93,SE,135,8.0,13.0,57,0.00,,,0.00,Weather View 32 v70,2013-07-08 20:17:00,
2013-07-08 16:23:00,87.0,68.8,29.93,SW,225,7.0,16.0,55,0.00,,,0.00,Weather View 32 v70,2013-07-08 20:23:00,
2013-07-08 16:28:00,87.0,69.3,29.93,SSW,202,6.0,16.0,56,0.00,,,0.00,Weather View 32 v70,2013-07-08 20:28:00,
2013-07-08 16:34:00,87.0,70.4,29.93,South,180,8.0,16.0,58,0.00,,,0.00,Weather View 32 v70,2013-07-08 20:34:00,
2013-07-08 16:39:00,87.0,70.9,29.93,South,180,4.0,16.0,59,0.00,,,0.00,Weather View 32 v70,2013-07-08 20:39:00,
2013-07-08 16:44:00,87.0,70.9,29.93,SE,135,11.0,16.0,59,0.00,,,0.00,Weather View 32 v70,2013-07-08 20:44:00,
2013-07-08 16:49:00,87.0,71.4,29.93,East,90,3.0,16.0,60,0.00,,,0.00,Weather View 32 v70,2013-07-08 20:49:00,
2013-07-08 16:55:00,87.0,70.9,29.93,SE,135,6.0,16.0,59,0.00,,,0.00,Weather View 32 v70,2013-07-08 20:55:00,
2013-07-08 17:00:00,87.0,71.4,29.93,ESE,112,5.0,16.0,60,0.00,,,0.00,Weather View 32 v70,2013-07-08 21:00:00,
2013-07-08 17:05:00,87.0,70.9,29.93,SSE,158,6.0,16.0,59,0.00,,,0.00,Weather View 32 v70,2013-07-08 21:05:00,
2013-07-08 17:11:00,86.0,69.9,29.93,SE,135,6.0,16.0,59,0.00,,,0.00,Weather View 32 v70,2013-07-08 21:11:00,
2013-07-08 17:16:00,86.0,70.4,29.92,SSE,158,6.0,16.0,60,0.00,,,0.00,Weather View 32 v70,2013-07-08 21:16:00,
2013-07-08 17:21:00,86.0,70.4,29.92,SSE,158,3.0,16.0,60,0.00,,,0.00,Weather View 32 v70,2013-07-08 21:21:00,
2013-07-08 17:27:00,86.0,70.4,29.91,NNW,338,2.0,13.0,60,0.00,,,0.00,Weather View 32 v70,2013-07-08 21:27:00,
2013-07-08 17:33:00,85.0,70.0,29.91,South,180,3.0,13.0,61,0.00,,,0.00,Weather View 32 v70,2013-07-08 21:33:00,
2013-07-08 17:38:00,85.0,70.0,29.91,South,180,3.0,13.0,61,0.00,,,0.00,Weather View 32 v70,2013-07-08 21:38:00,
2013-07-08 17:43:00,85.0,70.9,29.91,ESE,112,2.0,13.0,63,0.00,,,0.00,Weather View 32 v70,2013-07-08 21:43:00,
2013-07-08 17:48:00,85.0,70.9,29.91,SE,135,4.0,13.0,63,0.00,,,0.00,Weather View 32 v70,2013-07-08 21:48:00,
2013-07-08 17:54:00,85.0,70.9,29.91,ESE,112,3.0,13.0,63,0.00,,,0.00,Weather View 32 v70,2013-07-08 21:54:00,
2013-07-08 17:59:00,84.0,70.5,29.91,SE,135,6.0,12.0,64,0.00,,,0.00,Weather View 32 v70,2013-07-08 21:59:00,
2013-07-08 18:04:00,84.0,71.4,29.91,SSE,158,3.0,12.0,66,0.00,,,0.00,Weather View 32 v70,2013-07-08 22:04:00,
2013-07-08 18:09:00,84.0,71.8,29.91,SSE,158,3.0,11.0,67,0.00,,,0.00,Weather View 32 v70,2013-07-08 22:09:00,
2013-07-08 18:14:00,84.0,71.8,29.91,SSE,158,3.0,11.0,67,0.00,,,0.00,Weather View 32 v70,2013-07-08 22:14:00,
2013-07-08 18:20:00,83.0,71.7,29.91,ESE,112,2.0,11.0,69,0.00,,,0.00,Weather View 32 v70,2013-07-08 22:20:00,
2013-07-08 18:25:00,83.0,72.2,29.92,SE,135,5.0,11.0,70,0.00,,,0.00,Weather View 32 v70,2013-07-08 22:25:00,
2013-07-08 18:31:00,83.0,72.2,29.92,SE,135,3.0,8.0,70,0.00,,,0.00,Weather View 32 v70,2013-07-08 22:31:00,
2013-07-08 18:37:00,84.0,73.1,29.93,South,180,5.0,10.0,70,0.00,,,0.00,Weather View 32 v70,2013-07-08 22:37:00,
2013-07-08 18:42:00,83.0,72.2,29.93,SSE,158,6.0,16.0,70,0.00,,,0.00,Weather View 32 v70,2013-07-08 22:42:00,
2013-07-08 18:48:00,83.0,71.7,29.93,East,90,8.0,18.0,69,0.00,,,0.00,Weather View 32 v70,2013-07-08 22:48:00,
2013-07-08 18:53:00,82.0,70.8,29.93,SE,135,8.0,18.0,69,0.00,,,0.00,Weather View 32 v70,2013-07-08 22:53:00,
2013-07-08 18:59:00,82.0,70.3,29.93,ESE,112,7.0,18.0,68,0.00,,,0.00,Weather View 32 v70,2013-07-08 22:59:00,
2013-07-08 19:04:00,82.0,70.3,29.93,SE,135,6.0,18.0,68,0.00,,,0.00,Weather View 32 v70,2013-07-08 23:04:00,
2013-07-08 19:09:00,82.0,70.3,29.93,SE,135,7.0,18.0,68,0.00,,,0.00,Weather View 32 v70,2013-07-08 23:09:00,
2013-07-08 19:15:00,81.0,69.8,29.93,SE,135,3.0,18.0,69,0.00,,,0.00,Weather View 32 v70,2013-07-08 23:15:00,
2013-07-08 19:20:00,81.0,69.8,29.93,ESE,112,3.0,18.0,69,0.00,,,0.00,Weather View 32 v70,2013-07-08 23:20:00,
2013-07-08 19:25:00,81.0,69.8,29.93,SE,135,3.0,18.0,69,0.00,,,0.00,Weather View 32 v70,2013-07-08 23:25:00,
2013-07-08 19:30:00,81.0,70.2,29.94,SSE,158,3.0,18.0,70,0.00,,,0.00,Weather View 32 v70,2013-07-08 23:30:00,
2013-07-08 19:35:00,81.0,70.2,29.94,SSE,158,5.0,18.0,70,0.00,,,0.00,Weather View 32 v70,2013-07-08 23:35:00,
2013-07-08 19:40:00,81.0,70.2,29.94,SSE,158,4.0,18.0,70,0.00,,,0.00,Weather View 32 v70,2013-07-08 23:40:00,
2013-07-08 19:45:00,81.0,70.2,29.94,ESE,112,3.0,18.0,70,0.00,,,0.00,Weather View 32 v70,2013-07-08 23:45:00,
2013-07-08 19:51:00,81.0,70.2,29.94,East,90,4.0,12.0,70,0.00,,,0.00,Weather View 32 v70,2013-07-08 23:51:00,
2013-07-08 19:56:00,81.0,70.2,29.95,SE,135,5.0,12.0,70,0.00,,,0.00,Weather View 32 v70,2013-07-08 23:56:00,
2013-07-08 20:02:00,81.0,70.2,29.95,SE,135,3.0,12.0,70,0.00,,,0.00,Weather View 32 v70,2013-07-09 00:02:00,
2013-07-08 20:07:00,80.0,69.3,29.95,SE,135,5.0,12.0,70,0.00,,,0.00,Weather View 32 v70,2013-07-09 00:07:00,
2013-07-08 20:12:00,80.0,69.7,29.95,ESE,112,3.0,12.0,71,0.00,,,0.00,Weather View 32 v70,2013-07-09 00:12:00,
2013-07-08 20:17:00,79.0,69.2,29.95,ESE,112,6.0,9.0,72,0.00,,,0.00,Weather View 32 v70,2013-07-09 00:17:00,
2013-07-08 20:22:00,79.0,69.6,29.94,ESE,112,3.0,9.0,73,0.00,,,0.00,Weather View 32 v70,2013-07-09 00:22:00,
2013-07-08 20:28:00,79.0,69.6,29.94,SE,135,3.0,9.0,73,0.00,,,0.00,Weather View 32 v70,2013-07-09 00:28:00,
2013-07-08 20:33:00,78.0,69.0,29.94,ESE,112,5.0,9.0,74,0.00,,,0.00,Weather View 32 v70,2013-07-09 00:33:00,
2013-07-08 20:38:00,78.0,69.4,29.94,ESE,112,3.0,9.0,75,0.00,,,0.00,Weather View 32 v70,2013-07-09 00:38:00,
2013-07-08 20:44:00,78.0,69.8,29.94,ESE,112,3.0,9.0,76,0.00,,,0.00,Weather View 32 v70,2013-07-09 00:44:00,
2013-07-08 20:49:00,78.0,69.8,29.94,SE,135,4.0,9.0,76,0.00,,,0.00,Weather View 32 v70,2013-07-09 00:49:00,
2013-07-08 20:55:00,77.0,69.2,29.95,ESE,112,3.0,9.0,77,0.00,,,0.00,Weather View 32 v70,2013-07-09 00:55:00,
2013-07-08 21:00:00,77.0,69.6,29.95,ESE,112,2.0,8.0,78,0.00,,,0.00,Weather View 32 v70,2013-07-09 01:00:00,
2013-07-08 21:05:00,77.0,70.0,29.96,ESE,112,3.0,8.0,79,0.00,,,0.00,Weather View 32 v70,2013-07-09 01:05:00,
2013-07-08 21:10:00,77.0,70.0,29.97,ENE,68,2.0,8.0,79,0.00,,,0.00,Weather View 32 v70,2013-07-09 01:10:00,
2013-07-08 21:15:00,77.0,70.3,29.97,ESE,112,2.0,8.0,80,0.00,,,0.00,Weather View 32 v70,2013-07-09 01:15:00,
2013-07-08 21:21:00,77.0,70.7,29.97,East,90,2.0,7.0,81,0.00,,,0.00,Weather View 32 v70,2013-07-09 01:21:00,
2013-07-08 21:26:00,76.0,70.1,29.98,SE,135,3.0,6.0,82,0.00,,,0.00,Weather View 32 v70,2013-07-09 01:26:00,
2013-07-08 21:31:00,76.0,70.4,29.98,SE,135,4.0,6.0,83,0.00,,,0.00,Weather View 32 v70,2013-07-09 01:31:00,
2013-07-08 21:36:00,76.0,70.4,29.98,ESE,112,3.0,6.0,83,0.00,,,0.00,Weather View 32 v70,2013-07-09 01:36:00,
2013-07-08 21:42:00,76.0,70.8,29.98,SSE,158,3.0,6.0,84,0.00,,,0.00,Weather View 32 v70,2013-07-09 01:42:00,
2013-07-08 21:47:00,76.0,70.8,29.98,SSE,158,3.0,6.0,84,0.00,,,0.00,Weather View 32 v70,2013-07-09 01:47:00,
2013-07-08 21:52:00,76.0,71.1,29.98,SE,135,4.0,6.0,85,0.00,,,0.00,Weather View 32 v70,2013-07-09 01:52:00,
2013-07-08 21:57:00,76.0,71.1,29.98,ESE,112,2.0,6.0,85,0.00,,,0.00,Weather View 32 v70,2013-07-09 01:57:00,
2013-07-08 22:03:00,76.0,71.5,29.98,ESE,112,3.0,6.0,86,0.00,,,0.00,Weather View 32 v70,2013-07-09 02:03:00,
2013-07-08 22:08:00,76.0,71.8,29.99,SE,135,4.0,6.0,87,0.00,,,0.00,Weather View 32 v70,2013-07-09 02:08:00,
2013-07-08 22:13:00,75.0,71.2,29.99,SE,135,3.0,5.0,88,0.00,,,0.00,Weather View 32 v70,2013-07-09 02:13:00,
2013-07-08 22:19:00,75.0,71.2,29.99,SSE,158,3.0,5.0,88,0.00,,,0.00,Weather View 32 v70,2013-07-09 02:19:00,
2013-07-08 22:24:00,76.0,72.5,29.98,SSE,158,3.0,5.0,89,0.00,,,0.00,Weather View 32 v70,2013-07-09 02:24:00,
2013-07-08 22:29:00,76.0,72.5,29.98,SE,135,3.0,5.0,89,0.00,,,0.00,Weather View 32 v70,2013-07-09 02:29:00,
2013-07-08 22:35:00,75.0,71.5,29.98,SE,135,2.0,5.0,89,0.00,,,0.00,Weather View 32 v70,2013-07-09 02:35:00,
2013-07-08 22:41:00,75.0,71.9,29.98,East,90,3.0,5.0,90,0.00,,,0.00,Weather View 32 v70,2013-07-09 02:41:00,
2013-07-08 22:46:00,75.0,71.9,29.98,East,90,2.0,5.0,90,0.00,,,0.00,Weather View 32 v70,2013-07-09 02:46:00,
2013-07-08 22:52:00,74.0,71.5,29.98,ESE,112,3.0,5.0,92,0.00,,,0.00,Weather View 32 v70,2013-07-09 02:52:00,
2013-07-08 22:57:00,74.0,71.8,29.98,ESE,112,4.0,5.0,93,0.00,,,0.00,Weather View 32 v70,2013-07-09 02:57:00,
2013-07-08 23:02:00,74.0,71.8,29.98,ESE,112,3.0,5.0,93,0.00,,,0.00,Weather View 32 v70,2013-07-09 03:02:00,
2013-07-08 23:07:00,74.0,72.2,29.98,ESE,112,3.0,5.0,94,0.00,,,0.00,Weather View 32 v70,2013-07-09 03:07:00,
2013-07-08 23:12:00,74.0,72.5,29.99,ESE,112,4.0,5.0,95,0.00,,,0.00,Weather View 32 v70,2013-07-09 03:12:00,
2013-07-08 23:17:00,74.0,72.5,29.98,SE,135,3.0,5.0,95,0.00,,,0.00,Weather View 32 v70,2013-07-09 03:17:00,
2013-07-08 23:23:00,74.0,72.8,29.98,ESE,112,3.0,6.0,96,0.00,,,0.00,Weather View 32 v70,2013-07-09 03:23:00,
2013-07-08 23:28:00,74.0,73.1,29.98,East,90,3.0,6.0,97,0.00,,,0.00,Weather View 32 v70,2013-07-09 03:28:00,
2013-07-08 23:33:00,73.0,72.4,29.98,SSE,158,4.0,6.0,98,0.00,,,0.00,Weather View 32 v70,2013-07-09 03:33:00,
2013-07-08 23:39:00,73.0,72.4,29.98,SSE,158,3.0,7.0,98,0.00,,,0.00,Weather View 32 v70,2013-07-09 03:39:00,
2013-07-08 23:44:00,73.0,72.7,29.98,ESE,112,3.0,7.0,99,0.00,,,0.00,Weather View 32 v70,2013-07-09 03:44:00,
2013-07-08 23:50:00,73.0,72.7,29.98,ESE,112,2.0,7.0,99,0.00,,,0.00,Weather View 32 v70,2013-07-09 03:50:00,
2013-07-08 23:56:00,73.0,72.7,29.98,ESE,112,5.0,7.0,99,0.00,,,0.00,Weather View 32 v70,2013-07-09 03:56:00,